Torna al catalogo

FREGAT R/B

AttivoHEO
NORAD 42710·ROCKET BODY·🇷🇺 Russia

Lanciato May 18, 2017 da Guiana Space Centre

Loading…

Prossimi Passaggi (prossime 24 ore)

TLE

AggiornatoSource: Space-Track

Epoca: Sep 14, 2026, 17:33 UTC

1 42710U 17026B   26257.73182731 -.00000120  00000-0  00000-0 0  9998
2 42710   6.6453 326.8742 6235212 341.9678   3.4590  2.45433444 83657

Traccia FREGAT R/B in tempo reale con AllMySat

Download on the App Store